Montevideo, MN

10:26 AM CDT on July 22, 2017 (GMT -0500)
Montevideo-Chippewa County

Weather History for KMVE - October, 2012

Change the Weather History Date:

Monday, October 8, 2012

  Actual Average Record
Temperature  
Mean Temperature 50 °F -  
Max Temperature 66 °F 62 °F 90 °F (1980)
Min Temperature 35 °F 39 °F 17 °F (2000)
Degree Days  
Heating Degree Days 14    
Moisture  
Dew Point 30 °F    
Average Humidity 47    
Maximum Humidity 66    
Minimum Humidity 31    
Precipitation  
Precipitation 0.00 in - - ()
Sea Level Pressure  
Sea Level Pressure 29.70 in    
Wind  
Wind Speed 8 mph (West)    
Max Wind Speed 24 mph    
Max Gust Speed 32 mph    
Visibility 10 miles    
Events      
Averages and records for this station are not official NWS values.
T = Trace of Precipitation, MM = Missing Value Source: NWS Daily Summary

Daily Weather History Graph

Daily Weather History Graph

Search for Another Location

Airport or City:

Trip Planner

Search our weather history database for the weather conditions in past years. The results will help you decide how hot, cold, wet, or windy it might be!

Date:

Astronomy

Oct. 08, 2012 Rise Set
Actual Time 7:30 AM CDT 6:49 PM CDT
Civil Twilight 7:00 AM CDT 7:18 PM CDT
Nautical Twilight 6:26 AM CDT 7:52 PM CDT
Astronomical Twilight 5:52 AM CDT 8:26 PM CDT
Moon No Moon Rise 2:55 PM CDT (10/8)
Length of Visible Light 12h 17m
Length of Day
11h 19m
Last Quarter, 46% of the Moon is Illuminated
Oct 8
Last Quarter
Oct 15
New
Oct 21
First Quarter
Oct 29
Full
Nov 6
Last Quarter

Hourly Weather History & Observations

Time (CDT) Temp. Windchill Dew Point Humidity Pressure Visibility Wind Dir Wind Speed Gust Speed Precip Events Conditions
12:14 AM 37.4 °F 32.1 °F 19.4 °F 48% 29.83 in 10.0 mi SW 6.9 mph - N/A   Clear
12:34 AM 37.4 °F 33.8 °F 19.4 °F 48% 29.82 in 10.0 mi SW 4.6 mph - N/A   Clear
12:54 AM 37.4 °F 33.8 °F 19.4 °F 48% 29.82 in 10.0 mi SW 4.6 mph - N/A   Clear
1:14 AM 37.4 °F 32.1 °F 19.4 °F 48% 29.81 in 10.0 mi SW 6.9 mph - N/A   Clear
1:34 AM 35.6 °F 29.9 °F 19.4 °F 52% 29.81 in 10.0 mi SW 6.9 mph - N/A   Clear
1:54 AM 37.4 °F 32.1 °F 19.4 °F 48% 29.81 in 10.0 mi SW 6.9 mph - N/A   Clear
2:14 AM 35.6 °F 30.7 °F 19.4 °F 52% 29.81 in 10.0 mi SSW 5.8 mph - N/A   Clear
2:34 AM 35.6 °F 29.2 °F 19.4 °F 52% 29.81 in 10.0 mi SW 8.1 mph - N/A   Clear
2:54 AM 35.6 °F 29.2 °F 19.4 °F 52% 29.80 in 10.0 mi WSW 8.1 mph - N/A   Clear
3:14 AM 37.4 °F 31.4 °F 19.4 °F 48% 29.79 in 10.0 mi SW 8.1 mph - N/A   Scattered Clouds
3:34 AM 39.2 °F 35.0 °F 21.2 °F 49% 29.78 in 10.0 mi SW 5.8 mph - N/A   Scattered Clouds
3:54 AM 39.2 °F 35.0 °F 21.2 °F 49% 29.77 in 10.0 mi SW 5.8 mph - N/A   Mostly Cloudy
4:14 AM 39.2 °F 35.9 °F 21.2 °F 49% 29.76 in 10.0 mi SW 4.6 mph - N/A   Overcast
4:34 AM 41.0 °F 37.1 °F 21.2 °F 45% 29.75 in 10.0 mi SW 5.8 mph - N/A   Overcast
4:54 AM 41.0 °F 37.1 °F 21.2 °F 45% 29.75 in 10.0 mi SW 5.8 mph - N/A   Overcast
5:14 AM 42.8 °F 38.6 °F 23.0 °F 46% 29.75 in 10.0 mi WSW 6.9 mph - N/A   Overcast
5:34 AM 42.8 °F 40.1 °F 24.8 °F 49% 29.74 in 10.0 mi SW 4.6 mph - N/A   Overcast
5:54 AM 42.8 °F 38.6 °F 24.8 °F 49% 29.73 in 10.0 mi SW 6.9 mph - N/A   Mostly Cloudy
6:14 AM 42.8 °F 38.6 °F 24.8 °F 49% 29.72 in 10.0 mi SSW 6.9 mph - N/A   Scattered Clouds
6:34 AM 42.8 °F 37.5 °F 24.8 °F 49% 29.72 in 10.0 mi SW 9.2 mph - N/A   Scattered Clouds
6:54 AM 44.6 °F 40.2 °F 24.8 °F 46% 29.71 in 10.0 mi SW 8.1 mph - N/A   Scattered Clouds
7:14 AM 44.6 °F 40.2 °F 24.8 °F 46% 29.71 in 10.0 mi SW 8.1 mph - N/A   Scattered Clouds
7:34 AM 44.6 °F 39.7 °F 24.8 °F 46% 29.70 in 10.0 mi SW 9.2 mph - N/A   Scattered Clouds
7:54 AM 46.4 °F 41.9 °F 26.6 °F 46% 29.70 in 10.0 mi SW 9.2 mph - N/A   Mostly Cloudy
8:14 AM 46.4 °F 41.1 °F 26.6 °F 46% 29.70 in 10.0 mi SW 11.5 mph - N/A   Scattered Clouds
8:34 AM 46.4 °F 41.1 °F 26.6 °F 46% 29.69 in 10.0 mi SW 11.5 mph - N/A   Scattered Clouds
8:54 AM 46.4 °F 41.9 °F 26.6 °F 46% 29.69 in 10.0 mi SW 9.2 mph - N/A   Overcast
9:14 AM 48.2 °F - 26.6 °F 43% 29.68 in 10.0 mi SW 10.4 mph - N/A   Mostly Cloudy
9:34 AM 50.0 °F - 26.6 °F 40% 29.67 in 10.0 mi SW 11.5 mph - N/A   Scattered Clouds
9:54 AM 51.8 °F - 28.4 °F 41% 29.66 in 10.0 mi WSW 13.8 mph 18.4 mph N/A   Mostly Cloudy
10:14 AM 51.8 °F - 28.4 °F 41% 29.66 in 10.0 mi WSW 11.5 mph - N/A   Mostly Cloudy
10:34 AM 51.8 °F - 28.4 °F 41% 29.65 in 10.0 mi WSW 8.1 mph 11.5 mph N/A   Mostly Cloudy
10:54 AM 51.8 °F - 28.4 °F 41% 29.65 in 10.0 mi WSW 9.2 mph - N/A   Mostly Cloudy
11:14 AM 53.6 °F - 30.2 °F 41% 29.63 in 10.0 mi SW 12.7 mph - N/A   Mostly Cloudy
11:34 AM 51.8 °F - 32.0 °F 47% 29.61 in 10.0 mi SSW 8.1 mph - N/A   Mostly Cloudy
11:54 AM 53.6 °F - 30.2 °F 41% 29.61 in 10.0 mi SW 10.4 mph - N/A   Scattered Clouds
12:14 PM 53.6 °F - 30.2 °F 41% 29.61 in 10.0 mi SW 9.2 mph - N/A   Mostly Cloudy
12:55 PM 60.8 °F - 30.2 °F 31% 29.60 in 10.0 mi WNW 11.5 mph - N/A   Mostly Cloudy
1:14 PM 62.6 °F - 33.8 °F 34% 29.60 in 10.0 mi WNW 13.8 mph 24.2 mph N/A   Mostly Cloudy
1:34 PM 62.6 °F - 33.8 °F 34% 29.59 in 10.0 mi West 10.4 mph 24.2 mph N/A   Scattered Clouds
1:55 PM 62.6 °F - 33.8 °F 34% 29.59 in 10.0 mi WNW 13.8 mph 24.2 mph N/A   Mostly Cloudy
2:14 PM 64.4 °F - 35.6 °F 34% 29.58 in 10.0 mi NW 18.4 mph 26.5 mph N/A   Mostly Cloudy
2:34 PM 64.4 °F - 37.4 °F 37% 29.59 in 10.0 mi NW 18.4 mph 25.3 mph N/A   Mostly Cloudy
2:55 PM 66.2 °F - 39.2 °F 37% 29.59 in 10.0 mi NW 16.1 mph 26.5 mph N/A   Scattered Clouds
3:14 PM 64.4 °F - 41.0 °F 42% 29.60 in 10.0 mi NNW 18.4 mph 26.5 mph N/A   Mostly Cloudy
3:34 PM 64.4 °F - 39.2 °F 40% 29.60 in 10.0 mi NNW 24.2 mph 32.2 mph N/A   Scattered Clouds
3:54 PM 64.4 °F - 41.0 °F 42% 29.61 in 10.0 mi NNW 16.1 mph 27.6 mph N/A   Scattered Clouds
4:14 PM 62.6 °F - 39.2 °F 42% 29.62 in 10.0 mi NNW 13.8 mph 25.3 mph N/A   Mostly Cloudy
4:34 PM 64.4 °F - 39.2 °F 40% 29.62 in 10.0 mi NW 19.6 mph 28.8 mph N/A   Scattered Clouds
4:55 PM 62.6 °F - 39.2 °F 42% 29.63 in 10.0 mi NW 21.9 mph 29.9 mph N/A   Mostly Cloudy
5:14 PM 60.8 °F - 39.2 °F 45% 29.65 in 10.0 mi NNW 18.4 mph 28.8 mph N/A   Mostly Cloudy
5:34 PM 60.8 °F - 39.2 °F 45% 29.66 in 10.0 mi North 19.6 mph 27.6 mph N/A   Scattered Clouds
5:54 PM 59.0 °F - 39.2 °F 48% 29.68 in 10.0 mi North 16.1 mph 24.2 mph N/A   Overcast
6:14 PM 59.0 °F - 39.2 °F 48% 29.68 in 10.0 mi North 17.3 mph 23.0 mph N/A   Overcast
6:34 PM 57.2 °F - 37.4 °F 48% 29.70 in 10.0 mi North 12.7 mph 19.6 mph N/A   Mostly Cloudy
6:54 PM 55.4 °F - 37.4 °F 51% 29.71 in 10.0 mi North 11.5 mph - N/A   Scattered Clouds
7:14 PM 55.4 °F - 37.4 °F 51% 29.72 in 10.0 mi North 12.7 mph - N/A   Clear
7:34 PM 53.6 °F - 37.4 °F 54% 29.72 in 10.0 mi North 5.8 mph - N/A   Clear
7:54 PM 53.6 °F - 37.4 °F 54% 29.73 in 10.0 mi NW 3.5 mph - N/A   Clear
8:14 PM 51.8 °F - 37.4 °F 58% 29.73 in 10.0 mi NW 3.5 mph - N/A   Clear
8:34 PM 51.8 °F - 37.4 °F 58% 29.74 in 10.0 mi Calm Calm - N/A   Clear
8:54 PM 51.8 °F - 37.4 °F 58% 29.74 in 10.0 mi Calm Calm - N/A   Clear
9:14 PM 50.0 °F - 37.4 °F 62% 29.74 in 10.0 mi Calm Calm - N/A   Clear
9:34 PM 50.0 °F - 37.4 °F 62% 29.74 in 10.0 mi Calm Calm - N/A   Clear
9:54 PM 48.2 °F - 37.4 °F 66% 29.74 in 10.0 mi Calm Calm - N/A   Scattered Clouds
10:14 PM 48.2 °F - 37.4 °F 66% 29.74 in 10.0 mi WSW 3.5 mph - N/A   Mostly Cloudy
10:54 PM 50.0 °F - 37.4 °F 62% 29.75 in 10.0 mi Calm Calm - N/A   Overcast
11:14 PM 50.0 °F - 37.4 °F 62% 29.75 in 10.0 mi Calm Calm - N/A   Overcast
11:34 PM 50.0 °F - 37.4 °F 62% 29.76 in 10.0 mi WNW 4.6 mph - N/A   Overcast
11:54 PM 50.0 °F - 37.4 °F 62% 29.75 in 10.0 mi Calm Calm - N/A   Overcast